Regional Weather Roundup
Issued by NWS

Home | Current Version | Previous Version | Text Only | Print | Product List | Glossary Off
Versions: 1 2 3 4 5 6 7 8 9 10 11 12 13 14 15 16 17 18 19 20 21 22 23 24 25 26 27 28 29 30 31 32 33 34 35 36 37 38 39 40 41 42 43 44 45 46 47 48 49 50

000
ASUS43 KIND 222109
RWRIN

WEATHER ROUNDUP FOR INDIANA
NATIONAL WEATHER SERVICE INDIANAPOLIS IN
500 PM EDT WED MAR 22 2017

NOTE: "FAIR" INDICATES FEW OR NO CLOUDS BELOW 12,000 FEET WITH NO
SIGNIFICANT WEATHER AND/OR OBSTRUCTIONS TO VISIBILITY.

* - STATION DOES NOT REPORT WEATHER SUCH AS PRECIPITATION OR FOG.

+ - STATION NOT QUALITY CONTROLLED BY THE NATIONAL WEATHER SERVICE.
    USE DATA WITH CAUTION...ESPECIALLY DEWPOINT AND RELATIVE
    HUMIDITY OBSERVATIONS.

INZ001>003-010>013-019-020-222200-
NORTHWEST INDIANA

CITY           SKY/WX    TMP DP  RH WIND       PRES   REMARKS
GARY /AIRPORT/ MOSUNNY   34  16  47 NE9       30.56F WCI  26
KNOX *+        SUNNY     37 -18   8 CALM      30.52F
LA PORTE +     SUNNY     37  14  39 N5        30.52F
MICHIGAN CITY+ SUNNY     34  21  60 N10       30.54F WCI  26
MONTICELLO +   SUNNY     38  14  37 N3        30.50F
RENSSELAER +   SUNNY     37  18  44 NE9       30.51F
VALPARAISO     SUNNY     40  16  37 SE8       30.52F

$$

LMZ046-743>745-222200-
SOUTHERN LAKE MICHIGAN

STATION/POSITION TIME  TEMP    WIND        PRES    WAVE
                       AIR SEA DIR/SP/G            HT
                 (UTC) (F)     (DEG/KT/KT) (MB)    (FT)
BURNS HARBOR     2040   29      30/  8/ 13 1034.9F
MICHIGAN CITY    2040   28      10/ 11/ 12   N/A

$$

INZ004-005-014>016-021>024-222200-
NORTH CENTRAL INDIANA

CITY           SKY/WX    TMP DP  RH WIND       PRES   REMARKS
ELKHART        SUNNY     37  10  32 NE8       30.52F
GOSHEN         SUNNY     37   9  31 CALM      30.52F
LOGANSPORT +   SUNNY     37  18  44 NE8       30.51F
PERU/GRISSOM   SUNNY     38  17  43 E8        30.49F
ROCHESTER +    SUNNY     39  12  33 E6        30.52S
SOUTH BEND     SUNNY     37   9  31 E7        30.53F
WARSAW +       SUNNY     36  14  41 E3        30.51F

$$

INZ006>009-017-018-025>027-222200-
NORTHEAST INDIANA

CITY           SKY/WX    TMP DP  RH WIND       PRES   REMARKS
ANGOLA *+      SUNNY     36  19  51 CALM      30.51S
AUBURN +       SUNNY     36  12  38 CALM      30.53S
FORT WAYNE     SUNNY     37  15  40 E10G16    30.52F
HUNTINGTON +   SUNNY     37  15  41 NE7       30.52S
KENDALLVILLE + SUNNY     36  11  36 E6        30.52R

$$

INZ028-029-035-036-043>045-051>053-222200-
WEST CENTRAL INDIANA

CITY           SKY/WX    TMP DP  RH WIND       PRES   REMARKS
CRAWFORDSVL +  SUNNY     38  21  48 E14       30.47F
GREENCASTLE +  SUNNY     41  18  38 E13       30.46S
LAFAYETTE      SUNNY     38  20  48 E10       30.49F
TERRE HAUTE    SUNNY     44  17  33 E12       30.44F

$$

INZ030>032-037>040-046>048-054>057-064-065-222200-
CENTRAL INDIANA

CITY           SKY/WX    TMP DP  RH WIND       PRES   REMARKS
CP ATTERBURY + SUNNY     43  19  39 E10       30.46S
COLUMBUS       SUNNY     41  19  42 NE15      30.46S
FISHERS *+     SUNNY     39  25  56 NE9G16    30.48F
FRANKFORT +    SUNNY     41  25  53 E12       30.50F
GREENWOOD *+   SUNNY     41  19  41 E14       30.47S
INDIANAPOLIS   MOSUNNY   41  17  38 NE13      30.46F
-EAGLE CREEK   SUNNY     40  16  37 VRB5      30.46F
KOKOMO +       SUNNY     37  21  52 NE7       30.51S
MARION +       SUNNY     36  21  55 NE10      30.51S
MT COMFORT *+  SUNNY     39  21  48 E13       30.48S
SHELBYVILLE    SUNNY     41  20  43 NE14      30.46S
ZIONSVILLE +   SUNNY     37  22  53 E13       30.48S

$$

INZ033-034-041-042-049-050-058-059-222200-
EAST CENTRAL INDIANA

CITY           SKY/WX    TMP DP  RH WIND       PRES   REMARKS
MUNCIE         SUNNY     38  19  46 NE10      30.49S
RICHMOND +     SUNNY     36  19  51 NE12G17   30.46S

$$

INZ060-061-067>069-081>083-085>088-222200-
SOUTHWEST INDIANA

CITY           SKY/WX    TMP DP  RH WIND       PRES   REMARKS
EVANSVILLE     SUNNY     53  17  24 NE12      30.38F
HUNTINGBURG *+ SUNNY     48  17  29 NE15      30.39S
WASHINGTON +   SUNNY     48   8  20 CALM      30.40S

$$

INZ062-063-066-070>080-084-089>092-222200-
SOUTH CENTRAL AND SOUTHEAST INDIANA

CITY           SKY/WX    TMP DP  RH WIND       PRES   REMARKS
BEDFORD +      SUNNY     45  10  24 NE10      30.41
BLOOMINGTON    SUNNY     45  15  30 NE12      30.42F
MADISON *+     SUNNY     45  14  29 NE10G17   30.43F
NORTH VERNON + SUNNY     41  19  42 NE12G17   30.44F
SEYMOUR +      SUNNY     46  19  34 NE10G17   30.44S

$$




USA.gov is the U.S. government's official web portal to all federal, state and local government web resources and services.